{"data":{"norad_id":48331,"epoch":"2026-05-25T03:51:58.442976Z","epoch_age_seconds":57518,"freshness":"FRESH","line1":"1 48331U 21036BH  26145.16109309  .00037782  00000+0  12442-2 0  9999","line2":"2 48331  53.1593 105.7588 0001552 106.0931 254.0241 15.31150222279754","mean_motion":15.31150222,"eccentricity":0.0001552,"inclination_deg":53.1593,"raan_deg":105.7588,"arg_perigee_deg":106.0931,"mean_anomaly_deg":254.0241,"bstar":0.0012442,"rev_number":27975,"period_min":94.046944532919,"perigee_km":471.31614505616,"apogee_km":473.44254532971,"semimajor_km":6850.5163451929,"source":"CELESTRAK","updated_at":"2026-05-25T13:38:16.683513Z"}}